Cloud_Cover
5 10 10 16 5 6 0 0 0 0 0 0 0 0 0 0 0 0 0 5 4 93 100 72 8 65 94 97 100 10 53 76 53 96 16 5 9 5 100 100 82 92 57 3 5
22 18 24 16 0 5 0 3 0 1 0 0 0 0 0 1 0 0 0 0 1 6 100 100 29 52 100 92 68 100 51 97 19 30 99 45 86 15 51 100 100 99 62 4 0
21 23 23 20 18 14 6 15 2 0 8 0 0 0 0 2 0 0 0 0 0 4 17 100 76 94 100 83 89 100 88 95 92 19 25 27 9 5 16 100 100 100 7 5 0
12 21 19 16 9 4 14 18 19 8 7 0 0 0 0 0 0 0 0 0 0 0 5 100 98 34 99 99 90 94 100 90 89 100 48 99 81 63 69 92 100 100 5 5 5
17 10 14 11 2 3 4 2 18 20 14 2 0 0 0 0 0 0 0 0 0 0 0 79 42 74 18 26 65 12 83 98 88 17 67 51 100 100 42 90 100 100 37 65 27
12 10 0 0 0 2 6 0 22 26 15 0 0 34 0 0 0 0 0 0 0 0 0 8 69 72 33 88 6 16 5 60 48 100 96 47 100 100 15 65 97 100 20 100 87
0 0 0 3 11 19 16 15 17 25 14 0 0 0 0 0 0 0 0 0 0 0 0 0 57 9 5 7 5 5 5 5 6 29 5 90 100 100 32 32 100 100 87 100 0
0 0 0 16 19 13 14 8 0 0 0 0 1 0 0 0 0 0 0 0 0 0 0 0 2 7 5 5 5 5 1 38 4 5 0 4 79 100 100 67 96 71 100 3 49
2 4 2 14 19 23 1 0 0 0 0 0 2 0 0 0 0 0 0 0 0 0 0 0 0 1 4 3 5 4 94 14 0 0 0 0 82 3 100 95 60 38 43 5 5
1 3 5 53 74 6 0 3 0 14 0 0 0 0 0 0 0 0 0 0 0 0 0 0 0 0 5 6 5 5 6 5 2 0 0 0 9 15 2 11 83 9 52 100 99
0 4 81 100 5 0 14 1 0 0 0 0 0 0 0 0 0 0 0 0 0 0 0 0 0 1 4 0 98 2 53 64 0 0 0 0 0 19 10 18 96 60 33 5 4
64 100 100 27 0 0 8 0 5 1 0 0 0 0 0 0 0 0 0 0 0 0 0 0 0 0 5 7 79 5 12 63 2 0 0 0 0 0 0 4 4 28 81 7 5
100 100 96 11 1 33 0 0 0 1 0 0 0 0 0 0 0 0 0 0 0 0 0 0 0 0 5 5 37 64 5 42 45 0 0 0 1 0 0 0 3 30 40 28 22
100 100 99 2 25 0 0 0 0 0 0 0 0 0 0 0 0 0 0 0 0 0 0 0 0 0 0 5 4 17 62 6 28 4 53 0 86 5 0 0 0 5 8 7 25
100 94 55 0 0 0 0 0 0 0 0 0 0 0 0 0 0 0 0 0 0 0 0 0 0 0 0 0 5 5 98 5 5 5 45 4 4 72 2 0 0 3 55 5 5
57 32 8 0 0 0 0 0 0 0 0 0 0 0 0 0 0 0 0 0 0 0 0 0 0 0 0 0 4 5 32 5 5 9 24 6 5 6 11 0 2 5 5 5 5
0 0 25 0 0 0 0 0 0 0 0 0 0 0 0 0 0 0 0 0 0 0 0 0 0 0 0 0 1 5 26 5 9 34 29 88 3 5 15 0 0 1 9 5 5
0 2 39 0 0 0 0 0 0 0 0 0 0 0 0 0 0 0 0 0 0 0 0 0 0 0 0 0 0 5 6 64 65 44 35 54 0 0 0 0 0 0 0 0 5
22 0 0 0 0 0 0 0 0 0 0 0 0 0 2 0 0 0 0 0 0 0 0 0 0 0 0 0 0 0 1 3 75 83 63 54 0 0 0 5 5 3 0 0 4
0 0 0 0 0 0 0 0 0 0 0 0 1 0 0 1 0 0 0 0 0 0 0 0 0 0 0 0 0 0 1 0 2 32 46 6 6 5 5 5 5 4 0 0 0
0 0 0 0 0 0 0 0 0 0 0 0 0 0 1 1 0 0 0 0 0 0 0 0 0 0 0 0 0 0 0 0 0 1 5 6 3 4 1 1 5 5 3 0 0
0 0 0 0 0 0 0 0 0 0 0 0 0 0 0 0 5 5 0 0 0 0 0 0 0 0 0 0 0 0 0 0 0 0 0 0 4 70 0 3 10 79 5 3 0
0 0 0 0 0 0 5 5 4 0 0 0 0 0 0 0 5 87 4 3 0 0 0 0 0 0 0 0 0 0 0 0 0 0 2 0 0 0 1 9 74 98 97 82 6
0 0 0 0 0 2 5 82 16 0 0 0 0 0 0 0 0 64 91 4 3 0 0 0 0 0 0 0 0 0 0 0 0 0 0 0 0 5 1 45 38 47 100 96 74
0 0 0 0 4 4 19 97 5 4 0 0 0 0 0 0 0 0 82 28 27 5 0 0 0 0 0 0 0 0 0 0 0 0 0 0 0 0 0 18 3 100 100 100 97
5 5 5 5 5 5 8 74 5 0 0 0 0 0 0 0 0 0 0 100 95 57 5 0 0 0 0 0 0 0 0 0 0 0 0 0 0 0 0 0 0 39 100 100 51
5 7 32 64 100 71 5 9 2 0 0 0 0 0 1 2 3 0 0 19 100 85 100 26 1 0 1 2 0 0 0 0 0 0 0 0 0 0 0 25 56 75 100 100 100